Index of /20260505/WXO-DD/model_rdps/10km/06/049
Name Last modified Size Description
Parent Directory -
20260505T06Z_MSC_RDPS_AbsoluteVorticity_IsbL-0250_RLatLon0.09_PT049H.grib2 2026-05-05 08:55 587K
20260505T06Z_MSC_RDPS_AbsoluteVorticity_IsbL-0500_RLatLon0.09_PT049H.grib2 2026-05-05 08:55 556K
20260505T06Z_MSC_RDPS_AbsoluteVorticity_IsbL-0700_RLatLon0.09_PT049H.grib2 2026-05-05 08:55 608K
20260505T06Z_MSC_RDPS_AbsoluteVorticity_IsbL-0850_RLatLon0.09_PT049H.grib2 2026-05-05 08:55 779K
20260505T06Z_MSC_RDPS_AirTemp_AGL-120m_RLatLon0.09_PT049H.grib2 2026-05-05 08:55 375K
20260505T06Z_MSC_RDPS_AirTemp_AGL-2m_RLatLon0.09_PT049H.grib2 2026-05-05 08:55 631K
20260505T06Z_MSC_RDPS_AirTemp_AGL-40m_RLatLon0.09_PT049H.grib2 2026-05-05 08:55 392K
20260505T06Z_MSC_RDPS_AirTemp_AGL-80m_RLatLon0.09_PT049H.grib2 2026-05-05 08:55 382K
20260505T06Z_MSC_RDPS_AirTemp_IsbL-0001_RLatLon0.09_PT049H.grib2 2026-05-05 08:55 301K
20260505T06Z_MSC_RDPS_AirTemp_IsbL-0005_RLatLon0.09_PT049H.grib2 2026-05-05 08:55 289K
20260505T06Z_MSC_RDPS_AirTemp_IsbL-0010_RLatLon0.09_PT049H.grib2 2026-05-05 08:55 391K
20260505T06Z_MSC_RDPS_AirTemp_IsbL-0020_RLatLon0.09_PT049H.grib2 2026-05-05 08:55 321K
20260505T06Z_MSC_RDPS_AirTemp_IsbL-0030_RLatLon0.09_PT049H.grib2 2026-05-05 08:55 336K
20260505T06Z_MSC_RDPS_AirTemp_IsbL-0050_RLatLon0.09_PT049H.grib2 2026-05-05 08:55 311K
20260505T06Z_MSC_RDPS_AirTemp_IsbL-0100_RLatLon0.09_PT049H.grib2 2026-05-05 08:55 417K
20260505T06Z_MSC_RDPS_AirTemp_IsbL-0150_RLatLon0.09_PT049H.grib2 2026-05-05 08:55 405K
20260505T06Z_MSC_RDPS_AirTemp_IsbL-0175_RLatLon0.09_PT049H.grib2 2026-05-05 08:55 399K
20260505T06Z_MSC_RDPS_AirTemp_IsbL-0200_RLatLon0.09_PT049H.grib2 2026-05-05 08:55 407K
20260505T06Z_MSC_RDPS_AirTemp_IsbL-0225_RLatLon0.09_PT049H.grib2 2026-05-05 08:55 410K
20260505T06Z_MSC_RDPS_AirTemp_IsbL-0250_RLatLon0.09_PT049H.grib2 2026-05-05 08:55 416K
20260505T06Z_MSC_RDPS_AirTemp_IsbL-0275_RLatLon0.09_PT049H.grib2 2026-05-05 08:55 396K
20260505T06Z_MSC_RDPS_AirTemp_IsbL-0300_RLatLon0.09_PT049H.grib2 2026-05-05 08:55 403K
20260505T06Z_MSC_RDPS_AirTemp_IsbL-0350_RLatLon0.09_PT049H.grib2 2026-05-05 08:55 419K
20260505T06Z_MSC_RDPS_AirTemp_IsbL-0400_RLatLon0.09_PT049H.grib2 2026-05-05 08:55 421K
20260505T06Z_MSC_RDPS_AirTemp_IsbL-0450_RLatLon0.09_PT049H.grib2 2026-05-05 08:55 428K
20260505T06Z_MSC_RDPS_AirTemp_IsbL-0500_RLatLon0.09_PT049H.grib2 2026-05-05 08:55 404K
20260505T06Z_MSC_RDPS_AirTemp_IsbL-0550_RLatLon0.09_PT049H.grib2 2026-05-05 08:55 418K
20260505T06Z_MSC_RDPS_AirTemp_IsbL-0600_RLatLon0.09_PT049H.grib2 2026-05-05 08:55 435K
20260505T06Z_MSC_RDPS_AirTemp_IsbL-0650_RLatLon0.09_PT049H.grib2 2026-05-05 08:55 449K
20260505T06Z_MSC_RDPS_AirTemp_IsbL-0700_RLatLon0.09_PT049H.grib2 2026-05-05 08:55 475K
20260505T06Z_MSC_RDPS_AirTemp_IsbL-0750_RLatLon0.09_PT049H.grib2 2026-05-05 08:55 514K
20260505T06Z_MSC_RDPS_AirTemp_IsbL-0800_RLatLon0.09_PT049H.grib2 2026-05-05 08:55 448K
20260505T06Z_MSC_RDPS_AirTemp_IsbL-0850_RLatLon0.09_PT049H.grib2 2026-05-05 08:55 498K
20260505T06Z_MSC_RDPS_AirTemp_IsbL-0875_RLatLon0.09_PT049H.grib2 2026-05-05 08:55 517K
20260505T06Z_MSC_RDPS_AirTemp_IsbL-0900_RLatLon0.09_PT049H.grib2 2026-05-05 08:55 526K
20260505T06Z_MSC_RDPS_AirTemp_IsbL-0925_RLatLon0.09_PT049H.grib2 2026-05-05 08:55 524K
20260505T06Z_MSC_RDPS_AirTemp_IsbL-0950_RLatLon0.09_PT049H.grib2 2026-05-05 08:55 521K
20260505T06Z_MSC_RDPS_AirTemp_IsbL-0970_RLatLon0.09_PT049H.grib2 2026-05-05 08:55 518K
20260505T06Z_MSC_RDPS_AirTemp_IsbL-0985_RLatLon0.09_PT049H.grib2 2026-05-05 08:55 504K
20260505T06Z_MSC_RDPS_AirTemp_IsbL-1000_RLatLon0.09_PT049H.grib2 2026-05-05 08:55 485K
20260505T06Z_MSC_RDPS_AirTemp_IsbL-1015_RLatLon0.09_PT049H.grib2 2026-05-05 08:55 486K
20260505T06Z_MSC_RDPS_Albedo_Sfc_RLatLon0.09_PT049H.grib2 2026-05-05 08:55 157K
20260505T06Z_MSC_RDPS_CAPE_Sfc_RLatLon0.09_PT049H.grib2 2026-05-05 08:55 1.7M
20260505T06Z_MSC_RDPS_CIN_Sfc_RLatLon0.09_PT049H.grib2 2026-05-05 08:55 1.2M
20260505T06Z_MSC_RDPS_CloudWater_EAtm_RLatLon0.09_PT049H.grib2 2026-05-05 08:55 221K
20260505T06Z_MSC_RDPS_ConvectivePrecip-Accum_Sfc_RLatLon0.09_PT049H.grib2 2026-05-05 08:55 1.0M
20260505T06Z_MSC_RDPS_DewPointDepression_AGL-2m_RLatLon0.09_PT049H.grib2 2026-05-05 08:55 400K
20260505T06Z_MSC_RDPS_DewPointDepression_IsbL-0001_RLatLon0.09_PT049H.grib2 2026-05-05 08:55 193
20260505T06Z_MSC_RDPS_DewPointDepression_IsbL-0005_RLatLon0.09_PT049H.grib2 2026-05-05 08:55 193
20260505T06Z_MSC_RDPS_DewPointDepression_IsbL-0010_RLatLon0.09_PT049H.grib2 2026-05-05 08:55 193
20260505T06Z_MSC_RDPS_DewPointDepression_IsbL-0020_RLatLon0.09_PT049H.grib2 2026-05-05 08:55 193
20260505T06Z_MSC_RDPS_DewPointDepression_IsbL-0030_RLatLon0.09_PT049H.grib2 2026-05-05 08:55 193
20260505T06Z_MSC_RDPS_DewPointDepression_IsbL-0050_RLatLon0.09_PT049H.grib2 2026-05-05 08:55 81K
20260505T06Z_MSC_RDPS_DewPointDepression_IsbL-0100_RLatLon0.09_PT049H.grib2 2026-05-05 08:55 112K
20260505T06Z_MSC_RDPS_DewPointDepression_IsbL-0150_RLatLon0.09_PT049H.grib2 2026-05-05 08:55 137K
20260505T06Z_MSC_RDPS_DewPointDepression_IsbL-0175_RLatLon0.09_PT049H.grib2 2026-05-05 08:55 175K
20260505T06Z_MSC_RDPS_DewPointDepression_IsbL-0200_RLatLon0.09_PT049H.grib2 2026-05-05 08:55 215K
20260505T06Z_MSC_RDPS_DewPointDepression_IsbL-0225_RLatLon0.09_PT049H.grib2 2026-05-05 08:55 248K
20260505T06Z_MSC_RDPS_DewPointDepression_IsbL-0250_RLatLon0.09_PT049H.grib2 2026-05-05 08:55 294K
20260505T06Z_MSC_RDPS_DewPointDepression_IsbL-0275_RLatLon0.09_PT049H.grib2 2026-05-05 08:55 304K
20260505T06Z_MSC_RDPS_DewPointDepression_IsbL-0300_RLatLon0.09_PT049H.grib2 2026-05-05 08:55 322K
20260505T06Z_MSC_RDPS_DewPointDepression_IsbL-0350_RLatLon0.09_PT049H.grib2 2026-05-05 08:55 331K
20260505T06Z_MSC_RDPS_DewPointDepression_IsbL-0400_RLatLon0.09_PT049H.grib2 2026-05-05 08:55 339K
20260505T06Z_MSC_RDPS_DewPointDepression_IsbL-0450_RLatLon0.09_PT049H.grib2 2026-05-05 08:55 345K
20260505T06Z_MSC_RDPS_DewPointDepression_IsbL-0500_RLatLon0.09_PT049H.grib2 2026-05-05 08:55 346K
20260505T06Z_MSC_RDPS_DewPointDepression_IsbL-0550_RLatLon0.09_PT049H.grib2 2026-05-05 08:55 354K
20260505T06Z_MSC_RDPS_DewPointDepression_IsbL-0600_RLatLon0.09_PT049H.grib2 2026-05-05 08:55 364K
20260505T06Z_MSC_RDPS_DewPointDepression_IsbL-0650_RLatLon0.09_PT049H.grib2 2026-05-05 08:55 364K
20260505T06Z_MSC_RDPS_DewPointDepression_IsbL-0700_RLatLon0.09_PT049H.grib2 2026-05-05 08:55 373K
20260505T06Z_MSC_RDPS_DewPointDepression_IsbL-0750_RLatLon0.09_PT049H.grib2 2026-05-05 08:55 397K
20260505T06Z_MSC_RDPS_DewPointDepression_IsbL-0800_RLatLon0.09_PT049H.grib2 2026-05-05 08:55 438K
20260505T06Z_MSC_RDPS_DewPointDepression_IsbL-0850_RLatLon0.09_PT049H.grib2 2026-05-05 08:55 473K
20260505T06Z_MSC_RDPS_DewPointDepression_IsbL-0875_RLatLon0.09_PT049H.grib2 2026-05-05 08:55 475K
20260505T06Z_MSC_RDPS_DewPointDepression_IsbL-0900_RLatLon0.09_PT049H.grib2 2026-05-05 08:55 466K
20260505T06Z_MSC_RDPS_DewPointDepression_IsbL-0925_RLatLon0.09_PT049H.grib2 2026-05-05 08:55 455K
20260505T06Z_MSC_RDPS_DewPointDepression_IsbL-0950_RLatLon0.09_PT049H.grib2 2026-05-05 08:55 446K
20260505T06Z_MSC_RDPS_DewPointDepression_IsbL-0970_RLatLon0.09_PT049H.grib2 2026-05-05 08:55 438K
20260505T06Z_MSC_RDPS_DewPointDepression_IsbL-0985_RLatLon0.09_PT049H.grib2 2026-05-05 08:55 433K
20260505T06Z_MSC_RDPS_DewPointDepression_IsbL-1000_RLatLon0.09_PT049H.grib2 2026-05-05 08:55 428K
20260505T06Z_MSC_RDPS_DewPointDepression_IsbL-1015_RLatLon0.09_PT049H.grib2 2026-05-05 08:55 417K
20260505T06Z_MSC_RDPS_DewPoint_AGL-2m_RLatLon0.09_PT049H.grib2 2026-05-05 08:55 307K
20260505T06Z_MSC_RDPS_DownwardLongwaveRadiationFlux-Accum_Sfc_RLatLon0.09_PT049H.grib2 2026-05-05 08:55 373K
20260505T06Z_MSC_RDPS_DownwardShortwaveRadiationFlux-Accum_NTAtm_RLatLon0.09_PT049H.grib2 2026-05-05 08:55 142K
20260505T06Z_MSC_RDPS_DownwardShortwaveRadiationFlux-Accum_Sfc_RLatLon0.09_PT049H.grib2 2026-05-05 08:55 567K
20260505T06Z_MSC_RDPS_FreezingRain-Accum1h_Sfc_RLatLon0.09_PT049H.grib2 2026-05-05 08:55 33K
20260505T06Z_MSC_RDPS_FreezingRain-Accum_Sfc_RLatLon0.09_PT049H.grib2 2026-05-05 08:55 164K
20260505T06Z_MSC_RDPS_GeopotentialHeight_IsbL-0001_RLatLon0.09_PT049H.grib2 2026-05-05 08:55 238K
20260505T06Z_MSC_RDPS_GeopotentialHeight_IsbL-0005_RLatLon0.09_PT049H.grib2 2026-05-05 08:55 308K
20260505T06Z_MSC_RDPS_GeopotentialHeight_IsbL-0010_RLatLon0.09_PT049H.grib2 2026-05-05 08:55 338K
20260505T06Z_MSC_RDPS_GeopotentialHeight_IsbL-0020_RLatLon0.09_PT049H.grib2 2026-05-05 08:55 305K
20260505T06Z_MSC_RDPS_GeopotentialHeight_IsbL-0030_RLatLon0.09_PT049H.grib2 2026-05-05 08:55 306K
20260505T06Z_MSC_RDPS_GeopotentialHeight_IsbL-0050_RLatLon0.09_PT049H.grib2 2026-05-05 08:55 307K
20260505T06Z_MSC_RDPS_GeopotentialHeight_IsbL-0100_RLatLon0.09_PT049H.grib2 2026-05-05 08:55 284K
20260505T06Z_MSC_RDPS_GeopotentialHeight_IsbL-0150_RLatLon0.09_PT049H.grib2 2026-05-05 08:55 227K
20260505T06Z_MSC_RDPS_GeopotentialHeight_IsbL-0175_RLatLon0.09_PT049H.grib2 2026-05-05 08:55 229K
20260505T06Z_MSC_RDPS_GeopotentialHeight_IsbL-0200_RLatLon0.09_PT049H.grib2 2026-05-05 08:55 232K
20260505T06Z_MSC_RDPS_GeopotentialHeight_IsbL-0225_RLatLon0.09_PT049H.grib2 2026-05-05 08:55 264K
20260505T06Z_MSC_RDPS_GeopotentialHeight_IsbL-0250_RLatLon0.09_PT049H.grib2 2026-05-05 08:55 265K
20260505T06Z_MSC_RDPS_GeopotentialHeight_IsbL-0275_RLatLon0.09_PT049H.grib2 2026-05-05 08:55 234K
20260505T06Z_MSC_RDPS_GeopotentialHeight_IsbL-0300_RLatLon0.09_PT049H.grib2 2026-05-05 08:55 235K
20260505T06Z_MSC_RDPS_GeopotentialHeight_IsbL-0350_RLatLon0.09_PT049H.grib2 2026-05-05 08:55 231K
20260505T06Z_MSC_RDPS_GeopotentialHeight_IsbL-0400_RLatLon0.09_PT049H.grib2 2026-05-05 08:55 228K
20260505T06Z_MSC_RDPS_GeopotentialHeight_IsbL-0450_RLatLon0.09_PT049H.grib2 2026-05-05 08:55 295K
20260505T06Z_MSC_RDPS_GeopotentialHeight_IsbL-0500_RLatLon0.09_PT049H.grib2 2026-05-05 08:55 290K
20260505T06Z_MSC_RDPS_GeopotentialHeight_IsbL-0550_RLatLon0.09_PT049H.grib2 2026-05-05 08:55 286K
20260505T06Z_MSC_RDPS_GeopotentialHeight_IsbL-0600_RLatLon0.09_PT049H.grib2 2026-05-05 08:55 283K
20260505T06Z_MSC_RDPS_GeopotentialHeight_IsbL-0650_RLatLon0.09_PT049H.grib2 2026-05-05 08:55 253K
20260505T06Z_MSC_RDPS_GeopotentialHeight_IsbL-0700_RLatLon0.09_PT049H.grib2 2026-05-05 08:55 333K
20260505T06Z_MSC_RDPS_GeopotentialHeight_IsbL-0750_RLatLon0.09_PT049H.grib2 2026-05-05 08:55 335K
20260505T06Z_MSC_RDPS_GeopotentialHeight_IsbL-0800_RLatLon0.09_PT049H.grib2 2026-05-05 08:55 375K
20260505T06Z_MSC_RDPS_GeopotentialHeight_IsbL-0850_RLatLon0.09_PT049H.grib2 2026-05-05 08:55 386K
20260505T06Z_MSC_RDPS_GeopotentialHeight_IsbL-0875_RLatLon0.09_PT049H.grib2 2026-05-05 08:55 389K
20260505T06Z_MSC_RDPS_GeopotentialHeight_IsbL-0900_RLatLon0.09_PT049H.grib2 2026-05-05 08:55 392K
20260505T06Z_MSC_RDPS_GeopotentialHeight_IsbL-0925_RLatLon0.09_PT049H.grib2 2026-05-05 08:55 395K
20260505T06Z_MSC_RDPS_GeopotentialHeight_IsbL-0950_RLatLon0.09_PT049H.grib2 2026-05-05 08:55 398K
20260505T06Z_MSC_RDPS_GeopotentialHeight_IsbL-0970_RLatLon0.09_PT049H.grib2 2026-05-05 08:55 368K
20260505T06Z_MSC_RDPS_GeopotentialHeight_IsbL-0985_RLatLon0.09_PT049H.grib2 2026-05-05 08:55 377K
20260505T06Z_MSC_RDPS_GeopotentialHeight_IsbL-1000_RLatLon0.09_PT049H.grib2 2026-05-05 08:55 388K
20260505T06Z_MSC_RDPS_GeopotentialHeight_IsbL-1015_RLatLon0.09_PT049H.grib2 2026-05-05 08:55 403K
20260505T06Z_MSC_RDPS_Humidex_Sfc_RLatLon0.09_PT049H.grib2 2026-05-05 08:55 2.4M
20260505T06Z_MSC_RDPS_IcePellets-Accum1h_Sfc_RLatLon0.09_PT049H.grib2 2026-05-05 08:55 4.1K
20260505T06Z_MSC_RDPS_IcePellets-Accum_Sfc_RLatLon0.09_PT049H.grib2 2026-05-05 08:55 31K
20260505T06Z_MSC_RDPS_KIndex_Sfc_RLatLon0.09_PT049H.grib2 2026-05-05 08:55 2.5M
20260505T06Z_MSC_RDPS_LatentHeatNetFlux_Sfc_RLatLon0.09_PT049H.grib2 2026-05-05 08:55 313K
20260505T06Z_MSC_RDPS_LiftedIndex-MU-VT_IsbL-0500_RLatLon0.09_PT049H.grib2 2026-05-05 08:55 2.4M
20260505T06Z_MSC_RDPS_NetLongwaveRadiationFlux-Accum_Sfc_RLatLon0.09_PT049H.grib2 2026-05-05 08:55 548K
20260505T06Z_MSC_RDPS_NetShortwaveRadiationFlux-Accum_Sfc_RLatLon0.09_PT049H.grib2 2026-05-05 08:55 563K
20260505T06Z_MSC_RDPS_PlanetaryBoundaryLayerHeight_Sfc_RLatLon0.09_PT049H.grib2 2026-05-05 08:55 1.1M
20260505T06Z_MSC_RDPS_Precip-Accum1h_Sfc_RLatLon0.09_PT049H.grib2 2026-05-05 08:55 1.3M
20260505T06Z_MSC_RDPS_Precip-Accum_Sfc_RLatLon0.09_PT049H.grib2 2026-05-05 08:55 2.1M
20260505T06Z_MSC_RDPS_PrecipRate_Sfc_RLatLon0.09_PT049H.grib2 2026-05-05 08:55 179K
20260505T06Z_MSC_RDPS_PrecipType-Instant_Sfc_RLatLon0.09_PT049H.grib2 2026-05-05 08:55 589K
20260505T06Z_MSC_RDPS_Pressure-Trend3h_Sfc_RLatLon0.09_PT049H.grib2 2026-05-05 08:55 1.2M
20260505T06Z_MSC_RDPS_Pressure_MSL_RLatLon0.09_PT049H.grib2 2026-05-05 08:55 288K
20260505T06Z_MSC_RDPS_Pressure_PVU-1.5_RLatLon0.09_PT049H.grib2 2026-05-05 08:55 2.5M
20260505T06Z_MSC_RDPS_Pressure_PVU-1_RLatLon0.09_PT049H.grib2 2026-05-05 08:55 2.4M
20260505T06Z_MSC_RDPS_Pressure_PVU-2_RLatLon0.09_PT049H.grib2 2026-05-05 08:55 2.4M
20260505T06Z_MSC_RDPS_Pressure_Sfc_RLatLon0.09_PT049H.grib2 2026-05-05 08:55 497K
20260505T06Z_MSC_RDPS_RadiativeTemp_Sfc_RLatLon0.09_PT049H.grib2 2026-05-05 08:55 303K
20260505T06Z_MSC_RDPS_Rain-Accum1h_Sfc_RLatLon0.09_PT049H.grib2 2026-05-05 08:55 627K
20260505T06Z_MSC_RDPS_Rain-Accum_Sfc_RLatLon0.09_PT049H.grib2 2026-05-05 08:55 1.7M
20260505T06Z_MSC_RDPS_RelativeHumidity_AGL-2m_RLatLon0.09_PT049H.grib2 2026-05-05 08:55 1.0M
20260505T06Z_MSC_RDPS_RelativeHumidity_IsbL-0010_RLatLon0.09_PT049H.grib2 2026-05-05 08:55 702K
20260505T06Z_MSC_RDPS_RelativeHumidity_IsbL-0020_RLatLon0.09_PT049H.grib2 2026-05-05 08:55 654K
20260505T06Z_MSC_RDPS_RelativeHumidity_IsbL-0030_RLatLon0.09_PT049H.grib2 2026-05-05 08:55 600K
20260505T06Z_MSC_RDPS_RelativeHumidity_IsbL-0050_RLatLon0.09_PT049H.grib2 2026-05-05 08:55 354K
20260505T06Z_MSC_RDPS_RelativeHumidity_IsbL-0100_RLatLon0.09_PT049H.grib2 2026-05-05 08:55 274K
20260505T06Z_MSC_RDPS_RelativeHumidity_IsbL-0150_RLatLon0.09_PT049H.grib2 2026-05-05 08:55 403K
20260505T06Z_MSC_RDPS_RelativeHumidity_IsbL-0175_RLatLon0.09_PT049H.grib2 2026-05-05 08:55 459K
20260505T06Z_MSC_RDPS_RelativeHumidity_IsbL-0200_RLatLon0.09_PT049H.grib2 2026-05-05 08:55 533K
20260505T06Z_MSC_RDPS_RelativeHumidity_IsbL-0225_RLatLon0.09_PT049H.grib2 2026-05-05 08:55 600K
20260505T06Z_MSC_RDPS_RelativeHumidity_IsbL-0250_RLatLon0.09_PT049H.grib2 2026-05-05 08:55 663K
20260505T06Z_MSC_RDPS_RelativeHumidity_IsbL-0275_RLatLon0.09_PT049H.grib2 2026-05-05 08:55 691K
20260505T06Z_MSC_RDPS_RelativeHumidity_IsbL-0300_RLatLon0.09_PT049H.grib2 2026-05-05 08:55 740K
20260505T06Z_MSC_RDPS_RelativeHumidity_IsbL-0350_RLatLon0.09_PT049H.grib2 2026-05-05 08:55 768K
20260505T06Z_MSC_RDPS_RelativeHumidity_IsbL-0400_RLatLon0.09_PT049H.grib2 2026-05-05 08:55 784K
20260505T06Z_MSC_RDPS_RelativeHumidity_IsbL-0450_RLatLon0.09_PT049H.grib2 2026-05-05 08:55 791K
20260505T06Z_MSC_RDPS_RelativeHumidity_IsbL-0500_RLatLon0.09_PT049H.grib2 2026-05-05 08:55 791K
20260505T06Z_MSC_RDPS_RelativeHumidity_IsbL-0550_RLatLon0.09_PT049H.grib2 2026-05-05 08:55 807K
20260505T06Z_MSC_RDPS_RelativeHumidity_IsbL-0600_RLatLon0.09_PT049H.grib2 2026-05-05 08:55 825K
20260505T06Z_MSC_RDPS_RelativeHumidity_IsbL-0650_RLatLon0.09_PT049H.grib2 2026-05-05 08:55 833K
20260505T06Z_MSC_RDPS_RelativeHumidity_IsbL-0700_RLatLon0.09_PT049H.grib2 2026-05-05 08:55 857K
20260505T06Z_MSC_RDPS_RelativeHumidity_IsbL-0750_RLatLon0.09_PT049H.grib2 2026-05-05 08:55 901K
20260505T06Z_MSC_RDPS_RelativeHumidity_IsbL-0800_RLatLon0.09_PT049H.grib2 2026-05-05 08:55 973K
20260505T06Z_MSC_RDPS_RelativeHumidity_IsbL-0850_RLatLon0.09_PT049H.grib2 2026-05-05 08:55 1.0M
20260505T06Z_MSC_RDPS_RelativeHumidity_IsbL-0875_RLatLon0.09_PT049H.grib2 2026-05-05 08:55 1.1M
20260505T06Z_MSC_RDPS_RelativeHumidity_IsbL-0900_RLatLon0.09_PT049H.grib2 2026-05-05 08:55 1.1M
20260505T06Z_MSC_RDPS_RelativeHumidity_IsbL-0925_RLatLon0.09_PT049H.grib2 2026-05-05 08:55 1.1M
20260505T06Z_MSC_RDPS_RelativeHumidity_IsbL-0950_RLatLon0.09_PT049H.grib2 2026-05-05 08:55 1.1M
20260505T06Z_MSC_RDPS_RelativeHumidity_IsbL-0970_RLatLon0.09_PT049H.grib2 2026-05-05 08:55 1.1M
20260505T06Z_MSC_RDPS_RelativeHumidity_IsbL-0985_RLatLon0.09_PT049H.grib2 2026-05-05 08:55 1.0M
20260505T06Z_MSC_RDPS_RelativeHumidity_IsbL-1000_RLatLon0.09_PT049H.grib2 2026-05-05 08:55 1.0M
20260505T06Z_MSC_RDPS_RelativeHumidity_IsbL-1015_RLatLon0.09_PT049H.grib2 2026-05-05 08:55 1.0M
20260505T06Z_MSC_RDPS_Runoff-Accum_Sfc_RLatLon0.09_PT049H.grib2 2026-05-05 08:55 56K
20260505T06Z_MSC_RDPS_SWEATIndex_Sfc_RLatLon0.09_PT049H.grib2 2026-05-05 08:55 2.4M
20260505T06Z_MSC_RDPS_SeeingIndex_EAtm_RLatLon0.09_PT049H.grib2 2026-05-05 08:55 1.0M
20260505T06Z_MSC_RDPS_SensibleHeatNetFlux_Sfc_RLatLon0.09_PT049H.grib2 2026-05-05 08:55 286K
20260505T06Z_MSC_RDPS_ShowalterIndex_IsbL-0500_RLatLon0.09_PT049H.grib2 2026-05-05 08:55 2.6M
20260505T06Z_MSC_RDPS_SkyTransparencyIndex_EAtm_RLatLon0.09_PT049H.grib2 2026-05-05 08:55 733K
20260505T06Z_MSC_RDPS_Snow-Accum1h_Sfc_RLatLon0.09_PT049H.grib2 2026-05-05 08:55 479K
20260505T06Z_MSC_RDPS_Snow-Accum_Sfc_RLatLon0.09_PT049H.grib2 2026-05-05 08:55 785K
20260505T06Z_MSC_RDPS_SnowDensity_Sfc_RLatLon0.09_PT049H.grib2 2026-05-05 08:55 176K
20260505T06Z_MSC_RDPS_SnowDepth_Sfc_RLatLon0.09_PT049H.grib2 2026-05-05 08:55 648K
20260505T06Z_MSC_RDPS_SoilTemp_DBS-0to10cm_RLatLon0.09_PT049H.grib2 2026-05-05 08:55 238K
20260505T06Z_MSC_RDPS_SoilTemp_Sfc_RLatLon0.09_PT049H.grib2 2026-05-05 08:55 263K
20260505T06Z_MSC_RDPS_SoilVolumetricIceContent_Sfc_RLatLon0.09_PT049H.grib2 2026-05-05 08:55 150K
20260505T06Z_MSC_RDPS_SoilVolumetricWaterContent_DBS-0to10cm_RLatLon0.09_PT049H.grib2 2026-05-05 08:55 283K
20260505T06Z_MSC_RDPS_SoilVolumetricWaterContent_DBS-0to1cm_RLatLon0.09_PT049H.grib2 2026-05-05 08:55 344K
20260505T06Z_MSC_RDPS_SpecificHumidity_AGL-120m_RLatLon0.09_PT049H.grib2 2026-05-05 08:55 494K
20260505T06Z_MSC_RDPS_SpecificHumidity_AGL-2m_RLatLon0.09_PT049H.grib2 2026-05-05 08:55 659K
20260505T06Z_MSC_RDPS_SpecificHumidity_AGL-40m_RLatLon0.09_PT049H.grib2 2026-05-05 08:55 500K
20260505T06Z_MSC_RDPS_SpecificHumidity_AGL-80m_RLatLon0.09_PT049H.grib2 2026-05-05 08:55 496K
20260505T06Z_MSC_RDPS_SpecificHumidity_IsbL-0001_RLatLon0.09_PT049H.grib2 2026-05-05 08:55 362K
20260505T06Z_MSC_RDPS_SpecificHumidity_IsbL-0005_RLatLon0.09_PT049H.grib2 2026-05-05 08:55 371K
20260505T06Z_MSC_RDPS_SpecificHumidity_IsbL-0010_RLatLon0.09_PT049H.grib2 2026-05-05 08:55 407K
20260505T06Z_MSC_RDPS_SpecificHumidity_IsbL-0020_RLatLon0.09_PT049H.grib2 2026-05-05 08:55 384K
20260505T06Z_MSC_RDPS_SpecificHumidity_IsbL-0030_RLatLon0.09_PT049H.grib2 2026-05-05 08:55 366K
20260505T06Z_MSC_RDPS_SpecificHumidity_IsbL-0050_RLatLon0.09_PT049H.grib2 2026-05-05 08:55 475K
20260505T06Z_MSC_RDPS_SpecificHumidity_IsbL-0100_RLatLon0.09_PT049H.grib2 2026-05-05 08:55 419K
20260505T06Z_MSC_RDPS_SpecificHumidity_IsbL-0150_RLatLon0.09_PT049H.grib2 2026-05-05 08:55 448K
20260505T06Z_MSC_RDPS_SpecificHumidity_IsbL-0175_RLatLon0.09_PT049H.grib2 2026-05-05 08:55 430K
20260505T06Z_MSC_RDPS_SpecificHumidity_IsbL-0200_RLatLon0.09_PT049H.grib2 2026-05-05 08:55 442K
20260505T06Z_MSC_RDPS_SpecificHumidity_IsbL-0225_RLatLon0.09_PT049H.grib2 2026-05-05 08:55 442K
20260505T06Z_MSC_RDPS_SpecificHumidity_IsbL-0250_RLatLon0.09_PT049H.grib2 2026-05-05 08:55 499K
20260505T06Z_MSC_RDPS_SpecificHumidity_IsbL-0275_RLatLon0.09_PT049H.grib2 2026-05-05 08:55 461K
20260505T06Z_MSC_RDPS_SpecificHumidity_IsbL-0300_RLatLon0.09_PT049H.grib2 2026-05-05 08:55 438K
20260505T06Z_MSC_RDPS_SpecificHumidity_IsbL-0350_RLatLon0.09_PT049H.grib2 2026-05-05 08:55 435K
20260505T06Z_MSC_RDPS_SpecificHumidity_IsbL-0400_RLatLon0.09_PT049H.grib2 2026-05-05 08:55 516K
20260505T06Z_MSC_RDPS_SpecificHumidity_IsbL-0450_RLatLon0.09_PT049H.grib2 2026-05-05 08:55 569K
20260505T06Z_MSC_RDPS_SpecificHumidity_IsbL-0500_RLatLon0.09_PT049H.grib2 2026-05-05 08:55 500K
20260505T06Z_MSC_RDPS_SpecificHumidity_IsbL-0550_RLatLon0.09_PT049H.grib2 2026-05-05 08:55 572K
20260505T06Z_MSC_RDPS_SpecificHumidity_IsbL-0600_RLatLon0.09_PT049H.grib2 2026-05-05 08:55 624K
20260505T06Z_MSC_RDPS_SpecificHumidity_IsbL-0650_RLatLon0.09_PT049H.grib2 2026-05-05 08:55 537K
20260505T06Z_MSC_RDPS_SpecificHumidity_IsbL-0700_RLatLon0.09_PT049H.grib2 2026-05-05 08:55 578K
20260505T06Z_MSC_RDPS_SpecificHumidity_IsbL-0750_RLatLon0.09_PT049H.grib2 2026-05-05 08:55 634K
20260505T06Z_MSC_RDPS_SpecificHumidity_IsbL-0800_RLatLon0.09_PT049H.grib2 2026-05-05 08:55 721K
20260505T06Z_MSC_RDPS_SpecificHumidity_IsbL-0850_RLatLon0.09_PT049H.grib2 2026-05-05 08:55 802K
20260505T06Z_MSC_RDPS_SpecificHumidity_IsbL-0875_RLatLon0.09_PT049H.grib2 2026-05-05 08:55 831K
20260505T06Z_MSC_RDPS_SpecificHumidity_IsbL-0900_RLatLon0.09_PT049H.grib2 2026-05-05 08:55 846K
20260505T06Z_MSC_RDPS_SpecificHumidity_IsbL-0925_RLatLon0.09_PT049H.grib2 2026-05-05 08:55 850K
20260505T06Z_MSC_RDPS_SpecificHumidity_IsbL-0950_RLatLon0.09_PT049H.grib2 2026-05-05 08:55 850K
20260505T06Z_MSC_RDPS_SpecificHumidity_IsbL-0970_RLatLon0.09_PT049H.grib2 2026-05-05 08:55 699K
20260505T06Z_MSC_RDPS_SpecificHumidity_IsbL-0985_RLatLon0.09_PT049H.grib2 2026-05-05 08:55 691K
20260505T06Z_MSC_RDPS_SpecificHumidity_IsbL-1000_RLatLon0.09_PT049H.grib2 2026-05-05 08:55 684K
20260505T06Z_MSC_RDPS_SpecificHumidity_IsbL-1015_RLatLon0.09_PT049H.grib2 2026-05-05 08:55 672K
20260505T06Z_MSC_RDPS_SpecificHumidity_Sfc_RLatLon0.09_PT049H.grib2 2026-05-05 08:55 299K
20260505T06Z_MSC_RDPS_StormRelativeHelicity_EtaL-10000_RLatLon0.09_PT049H.grib2 2026-05-05 08:55 1.1M
20260505T06Z_MSC_RDPS_StormSeverityIndex_EtaL-10000_RLatLon0.09_PT049H.grib2 2026-05-05 08:55 1.2M
20260505T06Z_MSC_RDPS_Thickness_IsbL-0850to0700_RLatLon0.09_PT049H.grib2 2026-05-05 08:55 173K
20260505T06Z_MSC_RDPS_Thickness_IsbL-1000to0500_RLatLon0.09_PT049H.grib2 2026-05-05 08:55 190K
20260505T06Z_MSC_RDPS_Thickness_IsbL-1000to0850_RLatLon0.09_PT049H.grib2 2026-05-05 08:55 257K
20260505T06Z_MSC_RDPS_TotalCloudCover_Sfc_RLatLon0.09_PT049H.grib2 2026-05-05 08:55 670K
20260505T06Z_MSC_RDPS_TotalTotalsIndex_Sfc_RLatLon0.09_PT049H.grib2 2026-05-05 08:55 2.4M
20260505T06Z_MSC_RDPS_UVIndex-ClearSky_Sfc_RLatLon0.09_PT049H.grib2 2026-05-05 08:55 99K
20260505T06Z_MSC_RDPS_UVIndex_Sfc_RLatLon0.09_PT049H.grib2 2026-05-05 08:55 177K
20260505T06Z_MSC_RDPS_UpwardLongwaveRadiationFlux_NTAtm_RLatLon0.09_PT049H.grib2 2026-05-05 08:55 480K
20260505T06Z_MSC_RDPS_UpwardShortwaveRadiationFlux_NTAtm_RLatLon0.09_PT049H.grib2 2026-05-05 08:55 150K
20260505T06Z_MSC_RDPS_VerticalVelocity_IsbL-0250_RLatLon0.09_PT049H.grib2 2026-05-05 08:55 572K
20260505T06Z_MSC_RDPS_VerticalVelocity_IsbL-0500_RLatLon0.09_PT049H.grib2 2026-05-05 08:55 567K
20260505T06Z_MSC_RDPS_VerticalVelocity_IsbL-0700_RLatLon0.09_PT049H.grib2 2026-05-05 08:55 584K
20260505T06Z_MSC_RDPS_VerticalVelocity_IsbL-0850_RLatLon0.09_PT049H.grib2 2026-05-05 08:55 683K
20260505T06Z_MSC_RDPS_VerticalWindShear_EtaL-6500_RLatLon0.09_PT049H.grib2 2026-05-05 08:55 1.2M
20260505T06Z_MSC_RDPS_WindChill_Sfc_RLatLon0.09_PT049H.grib2 2026-05-05 08:55 1.2M
20260505T06Z_MSC_RDPS_WindDir_AGL-10m_RLatLon0.09_PT049H.grib2 2026-05-05 08:55 968K
20260505T06Z_MSC_RDPS_WindDir_AGL-120m_RLatLon0.09_PT049H.grib2 2026-05-05 08:55 603K
20260505T06Z_MSC_RDPS_WindDir_AGL-40m_RLatLon0.09_PT049H.grib2 2026-05-05 08:55 635K
20260505T06Z_MSC_RDPS_WindDir_AGL-80m_RLatLon0.09_PT049H.grib2 2026-05-05 08:55 614K
20260505T06Z_MSC_RDPS_WindDir_IsbL-0001_RLatLon0.09_PT049H.grib2 2026-05-05 08:55 316K
20260505T06Z_MSC_RDPS_WindDir_IsbL-0005_RLatLon0.09_PT049H.grib2 2026-05-05 08:55 388K
20260505T06Z_MSC_RDPS_WindDir_IsbL-0010_RLatLon0.09_PT049H.grib2 2026-05-05 08:55 381K
20260505T06Z_MSC_RDPS_WindDir_IsbL-0020_RLatLon0.09_PT049H.grib2 2026-05-05 08:55 407K
20260505T06Z_MSC_RDPS_WindDir_IsbL-0030_RLatLon0.09_PT049H.grib2 2026-05-05 08:55 413K
20260505T06Z_MSC_RDPS_WindDir_IsbL-0050_RLatLon0.09_PT049H.grib2 2026-05-05 08:55 435K
20260505T06Z_MSC_RDPS_WindDir_IsbL-0100_RLatLon0.09_PT049H.grib2 2026-05-05 08:55 407K
20260505T06Z_MSC_RDPS_WindDir_IsbL-0150_RLatLon0.09_PT049H.grib2 2026-05-05 08:55 414K
20260505T06Z_MSC_RDPS_WindDir_IsbL-0175_RLatLon0.09_PT049H.grib2 2026-05-05 08:55 430K
20260505T06Z_MSC_RDPS_WindDir_IsbL-0200_RLatLon0.09_PT049H.grib2 2026-05-05 08:55 447K
20260505T06Z_MSC_RDPS_WindDir_IsbL-0225_RLatLon0.09_PT049H.grib2 2026-05-05 08:55 459K
20260505T06Z_MSC_RDPS_WindDir_IsbL-0250_RLatLon0.09_PT049H.grib2 2026-05-05 08:55 456K
20260505T06Z_MSC_RDPS_WindDir_IsbL-0275_RLatLon0.09_PT049H.grib2 2026-05-05 08:55 475K
20260505T06Z_MSC_RDPS_WindDir_IsbL-0300_RLatLon0.09_PT049H.grib2 2026-05-05 08:55 468K
20260505T06Z_MSC_RDPS_WindDir_IsbL-0350_RLatLon0.09_PT049H.grib2 2026-05-05 08:55 493K
20260505T06Z_MSC_RDPS_WindDir_IsbL-0400_RLatLon0.09_PT049H.grib2 2026-05-05 08:55 509K
20260505T06Z_MSC_RDPS_WindDir_IsbL-0450_RLatLon0.09_PT049H.grib2 2026-05-05 08:55 529K
20260505T06Z_MSC_RDPS_WindDir_IsbL-0500_RLatLon0.09_PT049H.grib2 2026-05-05 08:55 546K
20260505T06Z_MSC_RDPS_WindDir_IsbL-0550_RLatLon0.09_PT049H.grib2 2026-05-05 08:55 561K
20260505T06Z_MSC_RDPS_WindDir_IsbL-0600_RLatLon0.09_PT049H.grib2 2026-05-05 08:55 588K
20260505T06Z_MSC_RDPS_WindDir_IsbL-0650_RLatLon0.09_PT049H.grib2 2026-05-05 08:55 627K
20260505T06Z_MSC_RDPS_WindDir_IsbL-0700_RLatLon0.09_PT049H.grib2 2026-05-05 08:55 668K
20260505T06Z_MSC_RDPS_WindDir_IsbL-0750_RLatLon0.09_PT049H.grib2 2026-05-05 08:55 717K
20260505T06Z_MSC_RDPS_WindDir_IsbL-0800_RLatLon0.09_PT049H.grib2 2026-05-05 08:55 786K
20260505T06Z_MSC_RDPS_WindDir_IsbL-0850_RLatLon0.09_PT049H.grib2 2026-05-05 08:55 857K
20260505T06Z_MSC_RDPS_WindDir_IsbL-0875_RLatLon0.09_PT049H.grib2 2026-05-05 08:55 887K
20260505T06Z_MSC_RDPS_WindDir_IsbL-0900_RLatLon0.09_PT049H.grib2 2026-05-05 08:55 901K
20260505T06Z_MSC_RDPS_WindDir_IsbL-0925_RLatLon0.09_PT049H.grib2 2026-05-05 08:55 911K
20260505T06Z_MSC_RDPS_WindDir_IsbL-0950_RLatLon0.09_PT049H.grib2 2026-05-05 08:55 915K
20260505T06Z_MSC_RDPS_WindDir_IsbL-0970_RLatLon0.09_PT049H.grib2 2026-05-05 08:55 921K
20260505T06Z_MSC_RDPS_WindDir_IsbL-0985_RLatLon0.09_PT049H.grib2 2026-05-05 08:55 927K
20260505T06Z_MSC_RDPS_WindDir_IsbL-1000_RLatLon0.09_PT049H.grib2 2026-05-05 08:55 941K
20260505T06Z_MSC_RDPS_WindDir_IsbL-1015_RLatLon0.09_PT049H.grib2 2026-05-05 08:55 959K
20260505T06Z_MSC_RDPS_WindGust-Max_AGL-10m_RLatLon0.09_PT049H.grib2 2026-05-05 08:55 1.0M
20260505T06Z_MSC_RDPS_WindGust-Min_AGL-10m_RLatLon0.09_PT049H.grib2 2026-05-05 08:55 968K
20260505T06Z_MSC_RDPS_WindGust_AGL-10m_RLatLon0.09_PT049H.grib2 2026-05-05 08:55 1.0M
20260505T06Z_MSC_RDPS_WindSpeed_AGL-10m_RLatLon0.09_PT049H.grib2 2026-05-05 08:55 836K
20260505T06Z_MSC_RDPS_WindSpeed_AGL-120m_RLatLon0.09_PT049H.grib2 2026-05-05 08:55 537K
20260505T06Z_MSC_RDPS_WindSpeed_AGL-40m_RLatLon0.09_PT049H.grib2 2026-05-05 08:55 668K
20260505T06Z_MSC_RDPS_WindSpeed_AGL-80m_RLatLon0.09_PT049H.grib2 2026-05-05 08:55 538K
20260505T06Z_MSC_RDPS_WindSpeed_IsbL-0001_RLatLon0.09_PT049H.grib2 2026-05-05 08:55 254K
20260505T06Z_MSC_RDPS_WindSpeed_IsbL-0005_RLatLon0.09_PT049H.grib2 2026-05-05 08:55 385K
20260505T06Z_MSC_RDPS_WindSpeed_IsbL-0010_RLatLon0.09_PT049H.grib2 2026-05-05 08:55 400K
20260505T06Z_MSC_RDPS_WindSpeed_IsbL-0020_RLatLon0.09_PT049H.grib2 2026-05-05 08:55 424K
20260505T06Z_MSC_RDPS_WindSpeed_IsbL-0030_RLatLon0.09_PT049H.grib2 2026-05-05 08:55 318K
20260505T06Z_MSC_RDPS_WindSpeed_IsbL-0050_RLatLon0.09_PT049H.grib2 2026-05-05 08:55 347K
20260505T06Z_MSC_RDPS_WindSpeed_IsbL-0100_RLatLon0.09_PT049H.grib2 2026-05-05 08:55 468K
20260505T06Z_MSC_RDPS_WindSpeed_IsbL-0150_RLatLon0.09_PT049H.grib2 2026-05-05 08:55 395K
20260505T06Z_MSC_RDPS_WindSpeed_IsbL-0175_RLatLon0.09_PT049H.grib2 2026-05-05 08:55 418K
20260505T06Z_MSC_RDPS_WindSpeed_IsbL-0200_RLatLon0.09_PT049H.grib2 2026-05-05 08:55 434K
20260505T06Z_MSC_RDPS_WindSpeed_IsbL-0225_RLatLon0.09_PT049H.grib2 2026-05-05 08:55 438K
20260505T06Z_MSC_RDPS_WindSpeed_IsbL-0250_RLatLon0.09_PT049H.grib2 2026-05-05 08:55 437K
20260505T06Z_MSC_RDPS_WindSpeed_IsbL-0275_RLatLon0.09_PT049H.grib2 2026-05-05 08:55 455K
20260505T06Z_MSC_RDPS_WindSpeed_IsbL-0300_RLatLon0.09_PT049H.grib2 2026-05-05 08:55 455K
20260505T06Z_MSC_RDPS_WindSpeed_IsbL-0350_RLatLon0.09_PT049H.grib2 2026-05-05 08:55 472K
20260505T06Z_MSC_RDPS_WindSpeed_IsbL-0400_RLatLon0.09_PT049H.grib2 2026-05-05 08:55 457K
20260505T06Z_MSC_RDPS_WindSpeed_IsbL-0450_RLatLon0.09_PT049H.grib2 2026-05-05 08:55 457K
20260505T06Z_MSC_RDPS_WindSpeed_IsbL-0500_RLatLon0.09_PT049H.grib2 2026-05-05 08:55 456K
20260505T06Z_MSC_RDPS_WindSpeed_IsbL-0550_RLatLon0.09_PT049H.grib2 2026-05-05 08:55 573K
20260505T06Z_MSC_RDPS_WindSpeed_IsbL-0600_RLatLon0.09_PT049H.grib2 2026-05-05 08:55 581K
20260505T06Z_MSC_RDPS_WindSpeed_IsbL-0650_RLatLon0.09_PT049H.grib2 2026-05-05 08:55 601K
20260505T06Z_MSC_RDPS_WindSpeed_IsbL-0700_RLatLon0.09_PT049H.grib2 2026-05-05 08:55 670K
20260505T06Z_MSC_RDPS_WindSpeed_IsbL-0750_RLatLon0.09_PT049H.grib2 2026-05-05 08:55 701K
20260505T06Z_MSC_RDPS_WindSpeed_IsbL-0800_RLatLon0.09_PT049H.grib2 2026-05-05 08:55 751K
20260505T06Z_MSC_RDPS_WindSpeed_IsbL-0850_RLatLon0.09_PT049H.grib2 2026-05-05 08:55 816K
20260505T06Z_MSC_RDPS_WindSpeed_IsbL-0875_RLatLon0.09_PT049H.grib2 2026-05-05 08:55 839K
20260505T06Z_MSC_RDPS_WindSpeed_IsbL-0900_RLatLon0.09_PT049H.grib2 2026-05-05 08:55 854K
20260505T06Z_MSC_RDPS_WindSpeed_IsbL-0925_RLatLon0.09_PT049H.grib2 2026-05-05 08:55 867K
20260505T06Z_MSC_RDPS_WindSpeed_IsbL-0950_RLatLon0.09_PT049H.grib2 2026-05-05 08:55 868K
20260505T06Z_MSC_RDPS_WindSpeed_IsbL-0970_RLatLon0.09_PT049H.grib2 2026-05-05 08:55 861K
20260505T06Z_MSC_RDPS_WindSpeed_IsbL-0985_RLatLon0.09_PT049H.grib2 2026-05-05 08:55 852K
20260505T06Z_MSC_RDPS_WindSpeed_IsbL-1000_RLatLon0.09_PT049H.grib2 2026-05-05 08:55 845K
20260505T06Z_MSC_RDPS_WindSpeed_IsbL-1015_RLatLon0.09_PT049H.grib2 2026-05-05 08:55 836K
20260505T06Z_MSC_RDPS_WindU_AGL-10m_RLatLon0.09_PT049H.grib2 2026-05-05 08:55 430K
20260505T06Z_MSC_RDPS_WindU_AGL-120m_RLatLon0.09_PT049H.grib2 2026-05-05 08:55 534K
20260505T06Z_MSC_RDPS_WindU_AGL-40m_RLatLon0.09_PT049H.grib2 2026-05-05 08:55 537K
20260505T06Z_MSC_RDPS_WindU_AGL-80m_RLatLon0.09_PT049H.grib2 2026-05-05 08:55 535K
20260505T06Z_MSC_RDPS_WindU_IsbL-0001_RLatLon0.09_PT049H.grib2 2026-05-05 08:55 244K
20260505T06Z_MSC_RDPS_WindU_IsbL-0005_RLatLon0.09_PT049H.grib2 2026-05-05 08:55 286K
20260505T06Z_MSC_RDPS_WindU_IsbL-0010_RLatLon0.09_PT049H.grib2 2026-05-05 08:55 298K
20260505T06Z_MSC_RDPS_WindU_IsbL-0020_RLatLon0.09_PT049H.grib2 2026-05-05 08:55 317K
20260505T06Z_MSC_RDPS_WindU_IsbL-0030_RLatLon0.09_PT049H.grib2 2026-05-05 08:55 352K
20260505T06Z_MSC_RDPS_WindU_IsbL-0050_RLatLon0.09_PT049H.grib2 2026-05-05 08:55 378K
20260505T06Z_MSC_RDPS_WindU_IsbL-0100_RLatLon0.09_PT049H.grib2 2026-05-05 08:55 424K
20260505T06Z_MSC_RDPS_WindU_IsbL-0150_RLatLon0.09_PT049H.grib2 2026-05-05 08:55 389K
20260505T06Z_MSC_RDPS_WindU_IsbL-0175_RLatLon0.09_PT049H.grib2 2026-05-05 08:55 411K
20260505T06Z_MSC_RDPS_WindU_IsbL-0200_RLatLon0.09_PT049H.grib2 2026-05-05 08:55 331K
20260505T06Z_MSC_RDPS_WindU_IsbL-0225_RLatLon0.09_PT049H.grib2 2026-05-05 08:55 333K
20260505T06Z_MSC_RDPS_WindU_IsbL-0250_RLatLon0.09_PT049H.grib2 2026-05-05 08:55 332K
20260505T06Z_MSC_RDPS_WindU_IsbL-0275_RLatLon0.09_PT049H.grib2 2026-05-05 08:55 346K
20260505T06Z_MSC_RDPS_WindU_IsbL-0300_RLatLon0.09_PT049H.grib2 2026-05-05 08:55 344K
20260505T06Z_MSC_RDPS_WindU_IsbL-0350_RLatLon0.09_PT049H.grib2 2026-05-05 08:55 357K
20260505T06Z_MSC_RDPS_WindU_IsbL-0400_RLatLon0.09_PT049H.grib2 2026-05-05 08:55 462K
20260505T06Z_MSC_RDPS_WindU_IsbL-0450_RLatLon0.09_PT049H.grib2 2026-05-05 08:55 463K
20260505T06Z_MSC_RDPS_WindU_IsbL-0500_RLatLon0.09_PT049H.grib2 2026-05-05 08:55 462K
20260505T06Z_MSC_RDPS_WindU_IsbL-0550_RLatLon0.09_PT049H.grib2 2026-05-05 08:55 463K
20260505T06Z_MSC_RDPS_WindU_IsbL-0600_RLatLon0.09_PT049H.grib2 2026-05-05 08:55 470K
20260505T06Z_MSC_RDPS_WindU_IsbL-0650_RLatLon0.09_PT049H.grib2 2026-05-05 08:55 487K
20260505T06Z_MSC_RDPS_WindU_IsbL-0700_RLatLon0.09_PT049H.grib2 2026-05-05 08:55 509K
20260505T06Z_MSC_RDPS_WindU_IsbL-0750_RLatLon0.09_PT049H.grib2 2026-05-05 08:55 536K
20260505T06Z_MSC_RDPS_WindU_IsbL-0800_RLatLon0.09_PT049H.grib2 2026-05-05 08:55 578K
20260505T06Z_MSC_RDPS_WindU_IsbL-0850_RLatLon0.09_PT049H.grib2 2026-05-05 08:55 623K
20260505T06Z_MSC_RDPS_WindU_IsbL-0875_RLatLon0.09_PT049H.grib2 2026-05-05 08:55 643K
20260505T06Z_MSC_RDPS_WindU_IsbL-0900_RLatLon0.09_PT049H.grib2 2026-05-05 08:55 654K
20260505T06Z_MSC_RDPS_WindU_IsbL-0925_RLatLon0.09_PT049H.grib2 2026-05-05 08:55 663K
20260505T06Z_MSC_RDPS_WindU_IsbL-0950_RLatLon0.09_PT049H.grib2 2026-05-05 08:55 660K
20260505T06Z_MSC_RDPS_WindU_IsbL-0970_RLatLon0.09_PT049H.grib2 2026-05-05 08:55 655K
20260505T06Z_MSC_RDPS_WindU_IsbL-0985_RLatLon0.09_PT049H.grib2 2026-05-05 08:55 649K
20260505T06Z_MSC_RDPS_WindU_IsbL-1000_RLatLon0.09_PT049H.grib2 2026-05-05 08:55 783K
20260505T06Z_MSC_RDPS_WindU_IsbL-1015_RLatLon0.09_PT049H.grib2 2026-05-05 08:55 776K
20260505T06Z_MSC_RDPS_WindV_AGL-10m_RLatLon0.09_PT049H.grib2 2026-05-05 08:55 427K
20260505T06Z_MSC_RDPS_WindV_AGL-120m_RLatLon0.09_PT049H.grib2 2026-05-05 08:55 532K
20260505T06Z_MSC_RDPS_WindV_AGL-40m_RLatLon0.09_PT049H.grib2 2026-05-05 08:55 534K
20260505T06Z_MSC_RDPS_WindV_AGL-80m_RLatLon0.09_PT049H.grib2 2026-05-05 08:55 533K
20260505T06Z_MSC_RDPS_WindV_IsbL-0001_RLatLon0.09_PT049H.grib2 2026-05-05 08:55 249K
20260505T06Z_MSC_RDPS_WindV_IsbL-0005_RLatLon0.09_PT049H.grib2 2026-05-05 08:55 289K
20260505T06Z_MSC_RDPS_WindV_IsbL-0010_RLatLon0.09_PT049H.grib2 2026-05-05 08:55 300K
20260505T06Z_MSC_RDPS_WindV_IsbL-0020_RLatLon0.09_PT049H.grib2 2026-05-05 08:55 319K
20260505T06Z_MSC_RDPS_WindV_IsbL-0030_RLatLon0.09_PT049H.grib2 2026-05-05 08:55 316K
20260505T06Z_MSC_RDPS_WindV_IsbL-0050_RLatLon0.09_PT049H.grib2 2026-05-05 08:55 341K
20260505T06Z_MSC_RDPS_WindV_IsbL-0100_RLatLon0.09_PT049H.grib2 2026-05-05 08:55 327K
20260505T06Z_MSC_RDPS_WindV_IsbL-0150_RLatLon0.09_PT049H.grib2 2026-05-05 08:55 385K
20260505T06Z_MSC_RDPS_WindV_IsbL-0175_RLatLon0.09_PT049H.grib2 2026-05-05 08:55 410K
20260505T06Z_MSC_RDPS_WindV_IsbL-0200_RLatLon0.09_PT049H.grib2 2026-05-05 08:55 425K
20260505T06Z_MSC_RDPS_WindV_IsbL-0225_RLatLon0.09_PT049H.grib2 2026-05-05 08:55 428K
20260505T06Z_MSC_RDPS_WindV_IsbL-0250_RLatLon0.09_PT049H.grib2 2026-05-05 08:55 331K
20260505T06Z_MSC_RDPS_WindV_IsbL-0275_RLatLon0.09_PT049H.grib2 2026-05-05 08:55 370K
20260505T06Z_MSC_RDPS_WindV_IsbL-0300_RLatLon0.09_PT049H.grib2 2026-05-05 08:55 368K
20260505T06Z_MSC_RDPS_WindV_IsbL-0350_RLatLon0.09_PT049H.grib2 2026-05-05 08:55 356K
20260505T06Z_MSC_RDPS_WindV_IsbL-0400_RLatLon0.09_PT049H.grib2 2026-05-05 08:55 359K
20260505T06Z_MSC_RDPS_WindV_IsbL-0450_RLatLon0.09_PT049H.grib2 2026-05-05 08:55 460K
20260505T06Z_MSC_RDPS_WindV_IsbL-0500_RLatLon0.09_PT049H.grib2 2026-05-05 08:55 460K
20260505T06Z_MSC_RDPS_WindV_IsbL-0550_RLatLon0.09_PT049H.grib2 2026-05-05 08:55 460K
20260505T06Z_MSC_RDPS_WindV_IsbL-0600_RLatLon0.09_PT049H.grib2 2026-05-05 08:55 468K
20260505T06Z_MSC_RDPS_WindV_IsbL-0650_RLatLon0.09_PT049H.grib2 2026-05-05 08:55 485K
20260505T06Z_MSC_RDPS_WindV_IsbL-0700_RLatLon0.09_PT049H.grib2 2026-05-05 08:55 506K
20260505T06Z_MSC_RDPS_WindV_IsbL-0750_RLatLon0.09_PT049H.grib2 2026-05-05 08:55 531K
20260505T06Z_MSC_RDPS_WindV_IsbL-0800_RLatLon0.09_PT049H.grib2 2026-05-05 08:55 561K
20260505T06Z_MSC_RDPS_WindV_IsbL-0850_RLatLon0.09_PT049H.grib2 2026-05-05 08:55 618K
20260505T06Z_MSC_RDPS_WindV_IsbL-0875_RLatLon0.09_PT049H.grib2 2026-05-05 08:55 639K
20260505T06Z_MSC_RDPS_WindV_IsbL-0900_RLatLon0.09_PT049H.grib2 2026-05-05 08:55 651K
20260505T06Z_MSC_RDPS_WindV_IsbL-0925_RLatLon0.09_PT049H.grib2 2026-05-05 08:55 659K
20260505T06Z_MSC_RDPS_WindV_IsbL-0950_RLatLon0.09_PT049H.grib2 2026-05-05 08:55 658K
20260505T06Z_MSC_RDPS_WindV_IsbL-0970_RLatLon0.09_PT049H.grib2 2026-05-05 08:55 654K
20260505T06Z_MSC_RDPS_WindV_IsbL-0985_RLatLon0.09_PT049H.grib2 2026-05-05 08:55 787K
20260505T06Z_MSC_RDPS_WindV_IsbL-1000_RLatLon0.09_PT049H.grib2 2026-05-05 08:55 780K
20260505T06Z_MSC_RDPS_WindV_IsbL-1015_RLatLon0.09_PT049H.grib2 2026-05-05 08:55 819K